Time,TemperatureF,DewpointF,PressureIn,WindDirection,WindDirectionDegrees,WindSpeedMPH,WindSpeedGustMPH,Humidity,HourlyPrecipIn,Conditions,Clouds,dailyrainin,SoftwareType,DateUTC
2013-09-03 00:01:00,67.1,62.8,30.15,SSW,202,57.0,0.0,86,0.00,,SCT047,0.00,VWS V13.01,2013-09-03 04:01:00,
2013-09-03 00:02:00,67.1,62.8,30.15,SSW,202,57.0,0.0,86,0.00,,SCT047,0.00,VWS V13.01,2013-09-03 04:02:00,
2013-09-03 00:03:00,67.1,62.8,30.15,SSW,202,57.0,0.0,86,0.00,,SCT047,0.00,VWS V13.01,2013-09-03 04:03:00,
2013-09-03 00:06:00,67.1,62.8,30.15,SSW,202,57.0,0.0,86,0.00,,SCT047,0.00,VWS V13.01,2013-09-03 04:06:00,
2013-09-03 00:11:00,67.1,62.8,30.15,SSW,202,57.0,0.0,86,0.00,,SCT047,0.00,VWS V13.01,2013-09-03 04:11:00,
2013-09-03 00:16:00,67.1,62.8,30.14,SSW,202,57.0,0.0,86,0.00,,SCT047,0.00,VWS V13.01,2013-09-03 04:16:00,
2013-09-03 00:21:00,67.1,62.9,30.15,SSW,202,57.0,0.0,86,0.00,,SCT047,0.00,VWS V13.01,2013-09-03 04:21:00,
2013-09-03 00:26:00,67.2,62.9,30.15,SSW,202,57.0,0.0,86,0.00,,SCT047,0.00,VWS V13.01,2013-09-03 04:26:00,
2013-09-03 00:31:00,67.2,63.2,30.15,SW,225,57.0,0.0,87,0.00,,SCT047,0.00,VWS V13.01,2013-09-03 04:31:00,
2013-09-03 00:36:00,67.2,63.2,30.15,NW,315,0.8,0.0,87,0.00,,SCT047,0.00,VWS V13.01,2013-09-03 04:36:00,
2013-09-03 00:41:00,67.1,63.1,30.15,West,270,0.8,0.0,87,0.00,,BKN049,0.00,VWS V13.01,2013-09-03 04:41:00,
2013-09-03 00:46:00,67.1,63.1,30.15,WNW,292,1.1,0.0,87,0.00,,BKN049,0.00,VWS V13.01,2013-09-03 04:46:00,
2013-09-03 00:51:00,66.9,63.2,30.15,NW,315,1.1,0.0,88,0.00,,BKN070,0.00,VWS V13.01,2013-09-03 04:51:00,
2013-09-03 00:56:00,66.9,63.2,30.15,NW,315,1.1,0.0,88,0.00,,BKN070,0.00,VWS V13.01,2013-09-03 04:56:00,
2013-09-03 01:01:00,66.9,63.2,30.16,NW,315,1.1,0.0,88,0.00,,BKN070,0.00,VWS V13.01,2013-09-03 05:01:00,
2013-09-03 01:06:00,66.9,63.2,30.15,North,0,1.1,0.0,88,0.00,,BKN070,0.00,VWS V13.01,2013-09-03 05:06:00,
2013-09-03 01:11:00,66.9,63.2,30.15,NNE,22,1.1,0.0,88,0.00,,BKN070,0.00,VWS V13.01,2013-09-03 05:11:00,
2013-09-03 01:16:00,66.9,63.2,30.15,NNE,22,1.1,0.0,88,0.00,,BKN070,0.00,VWS V13.01,2013-09-03 05:16:00,
2013-09-03 01:21:00,66.9,63.0,30.15,NNE,22,1.1,0.0,88,0.00,,BKN070,0.00,VWS V13.01,2013-09-03 05:21:00,
2013-09-03 01:26:00,66.7,63.0,30.15,ESE,112,1.1,0.0,88,0.00,,BKN070,0.00,VWS V13.01,2013-09-03 05:26:00,
2013-09-03 01:32:00,66.7,63.0,30.15,ESE,112,1.1,0.0,88,0.00,,BKN070,0.00,VWS V13.01,2013-09-03 05:32:00,
2013-09-03 01:37:00,66.5,62.8,30.14,ESE,112,1.1,0.0,88,0.00,,BKN070,0.00,VWS V13.01,2013-09-03 05:37:00,
2013-09-03 01:42:00,66.3,62.6,30.15,SE,135,1.1,0.0,88,0.00,,,0.00,VWS V13.01,2013-09-03 05:42:00,
2013-09-03 01:47:00,66.3,62.6,30.14,ENE,68,1.1,0.0,88,0.00,,,0.00,VWS V13.01,2013-09-03 05:47:00,
2013-09-03 01:52:00,66.2,62.0,30.14,ENE,68,1.1,0.0,87,0.00,,,0.00,VWS V13.01,2013-09-03 05:52:00,
2013-09-03 01:57:00,66.0,62.0,30.14,ENE,68,1.1,0.0,87,0.00,,,0.00,VWS V13.01,2013-09-03 05:57:00,
2013-09-03 02:02:00,66.0,62.2,30.14,ENE,68,1.1,0.0,87,0.00,,,0.00,VWS V13.01,2013-09-03 06:02:00,
2013-09-03 02:07:00,65.8,62.2,30.14,ENE,68,1.1,0.0,87,0.00,,,0.00,VWS V13.01,2013-09-03 06:07:00,
2013-09-03 02:12:00,65.8,62.2,30.14,ENE,68,1.1,0.0,88,0.00,,,0.00,VWS V13.01,2013-09-03 06:12:00,
2013-09-03 02:17:00,65.6,62.0,30.14,ENE,68,1.1,0.0,88,0.00,,,0.00,VWS V13.01,2013-09-03 06:17:00,
2013-09-03 02:22:00,65.6,62.0,30.14,ENE,68,1.1,0.0,88,0.00,,,0.00,VWS V13.01,2013-09-03 06:22:00,
2013-09-03 02:27:00,65.6,61.8,30.14,ENE,68,1.1,0.0,88,0.00,,,0.00,VWS V13.01,2013-09-03 06:27:00,
2013-09-03 02:32:00,65.4,61.8,30.14,ENE,68,57.0,0.0,88,0.00,,,0.00,VWS V13.01,2013-09-03 06:32:00,
2013-09-03 02:37:00,65.4,61.8,30.13,ENE,68,57.0,0.0,88,0.00,,,0.00,VWS V13.01,2013-09-03 06:37:00,
2013-09-03 02:42:00,65.4,61.7,30.13,ENE,68,57.0,0.0,88,0.00,,,0.00,VWS V13.01,2013-09-03 06:42:00,
2013-09-03 02:47:00,65.3,61.7,30.14,ENE,68,57.0,0.0,88,0.00,,,0.00,VWS V13.01,2013-09-03 06:47:00,
2013-09-03 02:52:00,65.1,61.5,30.13,ENE,68,57.0,0.0,88,0.00,,,0.00,VWS V13.01,2013-09-03 06:52:00,
2013-09-03 02:57:00,65.1,61.3,30.13,ENE,68,57.0,0.0,88,0.00,,,0.00,VWS V13.01,2013-09-03 06:57:00,
2013-09-03 03:02:00,64.7,61.3,30.13,ENE,68,57.0,0.0,88,0.00,,,0.00,VWS V13.01,2013-09-03 07:02:00,
2013-09-03 03:07:00,64.7,61.1,30.12,ENE,68,57.0,0.0,88,0.00,,,0.00,VWS V13.01,2013-09-03 07:07:00,
2013-09-03 03:12:00,64.7,60.9,30.12,ENE,68,57.0,0.0,88,0.00,,,0.00,VWS V13.01,2013-09-03 07:12:00,
2013-09-03 03:17:00,64.5,60.9,30.12,ENE,68,57.0,0.0,88,0.00,,,0.00,VWS V13.01,2013-09-03 07:17:00,
2013-09-03 03:22:00,64.5,60.9,30.12,ENE,68,57.0,0.0,88,0.00,,,0.00,VWS V13.01,2013-09-03 07:22:00,
2013-09-03 03:27:00,64.2,60.8,30.13,ENE,68,57.0,0.0,88,0.00,,,0.00,VWS V13.01,2013-09-03 07:27:00,
2013-09-03 03:32:00,64.2,60.6,30.13,ENE,68,57.0,0.0,88,0.00,,,0.00,VWS V13.01,2013-09-03 07:32:00,
2013-09-03 03:37:00,64.2,60.6,30.13,ENE,68,57.0,0.0,88,0.00,,,0.00,VWS V13.01,2013-09-03 07:37:00,
2013-09-03 03:42:00,64.2,60.6,30.14,ENE,68,57.0,0.0,88,0.00,,,0.00,VWS V13.01,2013-09-03 07:42:00,
2013-09-03 03:47:00,64.2,60.6,30.14,WNW,292,57.0,0.0,88,0.00,,,0.00,VWS V13.01,2013-09-03 07:47:00,
2013-09-03 03:52:00,64.0,60.7,30.14,West,270,57.0,0.0,88,0.00,,,0.00,VWS V13.01,2013-09-03 07:52:00,
2013-09-03 03:57:00,64.0,60.7,30.14,WNW,292,57.0,0.0,89,0.00,,,0.00,VWS V13.01,2013-09-03 07:57:00,
2013-09-03 04:02:00,64.0,60.7,30.14,WNW,292,57.0,0.0,89,0.00,,,0.00,VWS V13.01,2013-09-03 08:02:00,
2013-09-03 04:07:00,64.0,60.7,30.14,WNW,292,57.0,0.0,89,0.00,,,0.00,VWS V13.01,2013-09-03 08:07:00,
2013-09-03 04:12:00,64.0,60.7,30.14,WNW,292,57.0,0.0,89,0.00,,,0.00,VWS V13.01,2013-09-03 08:12:00,
2013-09-03 04:17:00,64.0,60.7,30.13,WNW,292,57.0,0.0,89,0.00,,,0.00,VWS V13.01,2013-09-03 08:17:00,
2013-09-03 04:22:00,64.0,60.7,30.13,WNW,292,57.0,0.0,89,0.00,,,0.00,VWS V13.01,2013-09-03 08:22:00,
2013-09-03 04:27:00,64.0,60.7,30.13,WNW,292,57.0,0.0,89,0.00,,,0.00,VWS V13.01,2013-09-03 08:27:00,
2013-09-03 04:32:00,64.0,60.7,30.13,WNW,292,57.0,0.0,89,0.00,,,0.00,VWS V13.01,2013-09-03 08:32:00,
2013-09-03 04:37:00,63.8,60.3,30.13,WNW,292,57.0,0.0,89,0.00,,,0.00,VWS V13.01,2013-09-03 08:37:00,
2013-09-03 04:42:00,63.8,60.3,30.13,WNW,292,57.0,0.0,89,0.00,,CLR,0.00,VWS V13.01,2013-09-03 08:42:00,
2013-09-03 04:47:00,63.8,60.3,30.13,WNW,292,57.0,0.0,89,0.00,,CLR,0.00,VWS V13.01,2013-09-03 08:47:00,
2013-09-03 04:52:00,63.6,60.3,30.13,WNW,292,57.0,0.0,89,0.00,,CLR,0.00,VWS V13.01,2013-09-03 08:52:00,
2013-09-03 04:57:00,63.5,60.2,30.13,WNW,292,57.0,0.0,89,0.00,,CLR,0.00,VWS V13.01,2013-09-03 08:57:00,
2013-09-03 05:02:00,63.5,60.2,30.13,WNW,292,57.0,0.0,89,0.00,,CLR,0.00,VWS V13.01,2013-09-03 09:02:00,
2013-09-03 05:07:00,63.3,60.0,30.13,WNW,292,57.0,0.0,89,0.00,,CLR,0.00,VWS V13.01,2013-09-03 09:07:00,
2013-09-03 05:12:00,63.3,60.0,30.13,WNW,292,57.0,0.0,89,0.00,,CLR,0.00,VWS V13.01,2013-09-03 09:12:00,
2013-09-03 05:17:00,63.3,60.0,30.13,WNW,292,57.0,0.0,89,0.00,,CLR,0.00,VWS V13.01,2013-09-03 09:17:00,
2013-09-03 05:22:00,63.3,60.0,30.13,WNW,292,57.0,0.0,89,0.00,,CLR,0.00,VWS V13.01,2013-09-03 09:22:00,
2013-09-03 05:27:00,63.1,59.8,30.12,WNW,292,57.0,0.0,89,0.00,,CLR,0.00,VWS V13.01,2013-09-03 09:27:00,
2013-09-03 05:32:00,63.1,59.8,30.12,WNW,292,57.0,0.0,89,0.00,,CLR,0.00,VWS V13.01,2013-09-03 09:32:00,
2013-09-03 05:37:00,63.1,59.8,30.12,WNW,292,57.0,0.0,89,0.00,,CLR,0.00,VWS V13.01,2013-09-03 09:37:00,
2013-09-03 05:42:00,63.1,59.8,30.13,WNW,292,57.0,0.0,89,0.00,,,0.00,VWS V13.01,2013-09-03 09:42:00,
2013-09-03 05:47:00,63.1,59.8,30.13,WNW,292,57.0,0.0,89,0.00,,,0.00,VWS V13.01,2013-09-03 09:47:00,
2013-09-03 05:52:00,63.1,59.8,30.13,WNW,292,57.0,0.0,89,0.00,,,0.00,VWS V13.01,2013-09-03 09:52:00,
2013-09-03 05:57:00,62.9,59.6,30.13,WNW,292,57.0,0.0,89,0.00,,,0.00,VWS V13.01,2013-09-03 09:57:00,
2013-09-03 06:02:00,62.9,59.6,30.13,WNW,292,57.0,0.0,89,0.00,,,0.00,VWS V13.01,2013-09-03 10:02:00,
2013-09-03 06:07:00,62.9,59.6,30.13,WNW,292,57.0,0.0,89,0.00,,,0.00,VWS V13.01,2013-09-03 10:07:00,
2013-09-03 06:12:00,62.9,59.6,30.13,WNW,292,57.0,0.0,89,0.00,,,0.00,VWS V13.01,2013-09-03 10:12:00,
2013-09-03 06:17:00,62.7,59.6,30.14,WNW,292,57.0,0.0,89,0.00,,,0.00,VWS V13.01,2013-09-03 10:17:00,
2013-09-03 06:22:00,62.7,59.4,30.14,WNW,292,57.0,0.0,89,0.00,,,0.00,VWS V13.01,2013-09-03 10:22:00,
2013-09-03 06:27:00,62.7,59.4,30.14,WNW,292,57.0,0.0,89,0.00,,,0.00,VWS V13.01,2013-09-03 10:27:00,
2013-09-03 06:32:00,62.6,59.3,30.15,WNW,292,57.0,0.0,89,0.00,,,0.00,VWS V13.01,2013-09-03 10:32:00,
2013-09-03 06:37:00,62.6,59.1,30.14,WNW,292,57.0,0.0,89,0.00,,,0.00,VWS V13.01,2013-09-03 10:37:00,
2013-09-03 06:42:00,62.6,59.1,30.15,WNW,292,57.0,0.0,89,0.00,,,0.00,VWS V13.01,2013-09-03 10:42:00,
2013-09-03 06:47:00,62.4,59.1,30.15,WNW,292,57.0,0.0,89,0.00,,,0.00,VWS V13.01,2013-09-03 10:47:00,
2013-09-03 06:52:00,62.4,59.1,30.15,WNW,292,57.0,0.0,89,0.00,,,0.00,VWS V13.01,2013-09-03 10:52:00,
2013-09-03 06:57:00,62.4,59.1,30.15,WNW,292,57.0,0.0,89,0.00,,,0.00,VWS V13.01,2013-09-03 10:57:00,
2013-09-03 07:02:00,62.4,59.1,30.16,WNW,292,57.0,0.0,89,0.00,,,0.00,VWS V13.01,2013-09-03 11:02:00,
2013-09-03 07:07:00,62.4,58.9,30.16,WNW,292,57.0,0.0,89,0.00,,,0.00,VWS V13.01,2013-09-03 11:07:00,
2013-09-03 07:12:00,62.2,58.9,30.16,WNW,292,57.0,0.0,89,0.00,,,0.00,VWS V13.01,2013-09-03 11:12:00,
2013-09-03 07:17:00,62.2,58.9,30.16,WNW,292,57.0,0.0,89,0.00,,,0.00,VWS V13.01,2013-09-03 11:17:00,
2013-09-03 07:22:00,62.2,59.1,30.16,WNW,292,57.0,0.0,89,0.00,,,0.00,VWS V13.01,2013-09-03 11:22:00,
2013-09-03 07:27:00,62.2,58.9,30.16,WNW,292,57.0,0.0,89,0.00,,,0.00,VWS V13.01,2013-09-03 11:27:00,
2013-09-03 07:32:00,62.4,59.1,30.16,WNW,292,57.0,0.0,89,0.00,,,0.00,VWS V13.01,2013-09-03 11:32:00,
2013-09-03 07:37:00,62.4,59.1,30.16,WNW,292,57.0,0.0,89,0.00,,,0.00,VWS V13.01,2013-09-03 11:37:00,
2013-09-03 07:42:00,62.4,59.3,30.16,WNW,292,57.0,0.0,89,0.00,,,0.00,VWS V13.01,2013-09-03 11:42:00,
2013-09-03 07:47:00,62.4,59.4,30.17,WNW,292,57.0,0.0,89,0.00,,,0.00,VWS V13.01,2013-09-03 11:47:00,
2013-09-03 07:52:00,62.7,59.4,30.16,WNW,292,57.0,0.0,89,0.00,,,0.00,VWS V13.01,2013-09-03 11:52:00,
2013-09-03 07:57:00,62.7,59.6,30.16,WNW,292,57.0,0.0,89,0.00,,,0.00,VWS V13.01,2013-09-03 11:57:00,
2013-09-03 08:02:00,63.1,59.8,30.17,WNW,292,57.0,0.0,89,0.00,,,0.00,VWS V13.01,2013-09-03 12:02:00,
2013-09-03 08:07:00,63.3,60.2,30.17,NE,45,57.0,0.0,89,0.00,,,0.00,VWS V13.01,2013-09-03 12:07:00,
2013-09-03 08:12:00,63.6,60.3,30.17,NE,45,57.0,0.0,89,0.00,,,0.00,VWS V13.01,2013-09-03 12:12:00,
2013-09-03 08:17:00,64.0,60.9,30.17,West,270,57.0,0.0,89,0.00,,,0.00,VWS V13.01,2013-09-03 12:17:00,
2013-09-03 08:22:00,64.4,61.5,30.17,West,270,57.0,0.0,90,0.00,,,0.00,VWS V13.01,2013-09-03 12:22:00,
2013-09-03 08:27:00,64.7,61.7,30.17,West,270,57.0,0.0,90,0.00,,,0.00,VWS V13.01,2013-09-03 12:27:00,
2013-09-03 08:32:00,65.1,61.8,30.18,WSW,248,1.1,0.0,89,0.00,,,0.00,VWS V13.01,2013-09-03 12:32:00,
2013-09-03 08:37:00,65.1,61.8,30.18,West,270,0.2,0.0,89,0.00,,,0.00,VWS V13.01,2013-09-03 12:37:00,
2013-09-03 08:42:00,65.4,62.1,30.18,West,270,0.2,0.0,89,0.00,,,0.00,VWS V13.01,2013-09-03 12:42:00,
2013-09-03 08:47:00,65.6,62.5,30.18,West,270,0.2,0.0,89,0.00,,,0.00,VWS V13.01,2013-09-03 12:47:00,
2013-09-03 08:52:00,65.8,62.7,30.18,WSW,248,0.2,0.0,89,0.00,,,0.00,VWS V13.01,2013-09-03 12:52:00,
2013-09-03 08:57:00,65.8,62.7,30.18,WSW,248,0.2,0.0,89,0.00,,,0.00,VWS V13.01,2013-09-03 12:57:00,
2013-09-03 09:02:00,66.3,63.0,30.18,WSW,248,0.2,0.0,89,0.00,,,0.00,VWS V13.01,2013-09-03 13:02:00,
2013-09-03 09:07:00,66.3,63.4,30.18,NW,315,0.2,0.0,89,0.00,,,0.00,VWS V13.01,2013-09-03 13:07:00,
2013-09-03 09:12:00,66.3,63.4,30.18,NW,315,0.2,0.0,89,0.00,,,0.00,VWS V13.01,2013-09-03 13:12:00,
2013-09-03 09:17:00,66.7,63.6,30.18,NW,315,0.2,0.0,89,0.00,,,0.00,VWS V13.01,2013-09-03 13:17:00,
2013-09-03 09:22:00,67.1,63.8,30.18,NW,315,0.2,0.0,89,0.00,,,0.00,VWS V13.01,2013-09-03 13:22:00,
2013-09-03 09:27:00,67.1,63.8,30.18,NW,315,0.2,0.0,89,0.00,,,0.00,VWS V13.01,2013-09-03 13:27:00,
2013-09-03 09:32:00,67.1,64.2,30.19,NW,315,0.2,0.0,89,0.00,,,0.00,VWS V13.01,2013-09-03 13:32:00,
2013-09-03 09:37:00,67.8,64.4,30.19,West,270,0.2,0.0,89,0.00,,,0.00,VWS V13.01,2013-09-03 13:37:00,
2013-09-03 09:42:00,67.8,64.4,30.19,West,270,0.2,0.0,89,0.00,,SCT060,0.00,VWS V13.01,2013-09-03 13:42:00,
2013-09-03 09:47:00,67.8,64.6,30.20,WSW,248,0.6,0.0,89,0.00,,SCT060,0.00,VWS V13.01,2013-09-03 13:47:00,
2013-09-03 09:52:00,67.8,64.4,30.20,WSW,248,0.6,0.0,88,0.00,,SCT060,0.00,VWS V13.01,2013-09-03 13:52:00,
2013-09-03 09:57:00,67.8,64.1,30.19,WSW,248,0.6,0.0,88,0.00,,SCT060,0.00,VWS V13.01,2013-09-03 13:57:00,
2013-09-03 10:02:00,68.1,64.4,30.19,SW,225,0.6,0.0,88,0.00,,SCT060,0.00,VWS V13.01,2013-09-03 14:02:00,
2013-09-03 10:07:00,68.1,64.4,30.19,SW,225,0.6,0.0,88,0.00,,SCT060,0.00,VWS V13.01,2013-09-03 14:07:00,
2013-09-03 10:12:00,68.5,64.6,30.20,WNW,292,0.6,0.0,87,0.00,,SCT060,0.00,VWS V13.01,2013-09-03 14:12:00,
2013-09-03 10:17:00,68.3,64.7,30.19,WSW,248,1.1,0.0,88,0.00,,SCT060,0.00,VWS V13.01,2013-09-03 14:17:00,
2013-09-03 10:22:00,68.3,64.9,30.20,West,270,1.1,0.0,88,0.00,,SCT060,0.00,VWS V13.01,2013-09-03 14:22:00,
2013-09-03 10:27:00,69.2,64.6,30.20,WSW,248,0.8,0.0,86,0.00,,SCT060,0.00,VWS V13.01,2013-09-03 14:27:00,
2013-09-03 10:32:00,69.6,65.2,30.20,West,270,3.3,0.0,86,0.00,,SCT060,0.00,VWS V13.01,2013-09-03 14:32:00,
2013-09-03 10:42:00,70.5,65.8,30.20,WSW,248,2.4,0.0,85,0.00,,SCT060,0.00,VWS V13.01,2013-09-03 14:42:00,
2013-09-03 10:47:00,70.7,65.7,30.20,WSW,248,7.8,0.0,85,0.00,,SCT060,0.00,VWS V13.01,2013-09-03 14:47:00,
2013-09-03 10:52:00,70.8,65.8,30.20,WSW,248,4.9,0.0,84,0.00,,SCT060,0.00,VWS V13.01,2013-09-03 14:52:00,
2013-09-03 10:57:00,71.4,66.0,30.20,NW,315,5.1,0.0,83,0.00,,SCT060,0.00,VWS V13.01,2013-09-03 14:57:00,
2013-09-03 11:02:00,71.7,65.9,30.20,NNW,338,0.8,0.0,82,0.00,,SCT030,0.00,VWS V13.01,2013-09-03 15:02:00,
2013-09-03 11:07:00,72.1,66.3,30.20,WSW,248,4.4,0.0,82,0.00,,SCT030,0.00,VWS V13.01,2013-09-03 15:07:00,
2013-09-03 11:12:00,72.5,65.7,30.20,West,270,3.8,0.0,80,0.00,,SCT030,0.00,VWS V13.01,2013-09-03 15:12:00,
2013-09-03 11:17:00,72.6,65.6,30.20,NNW,338,4.6,0.0,79,0.00,,SCT030,0.00,VWS V13.01,2013-09-03 15:17:00,
2013-09-03 11:22:00,72.6,65.6,30.20,NW,315,4.6,0.0,79,0.00,,SCT030,0.00,VWS V13.01,2013-09-03 15:22:00,
2013-09-03 11:27:00,72.5,66.3,30.20,NNE,22,2.9,0.0,79,0.00,,SCT030,0.00,VWS V13.01,2013-09-03 15:27:00,
2013-09-03 11:32:00,73.2,65.9,30.20,ENE,68,2.0,0.0,78,0.00,,SCT030,0.00,VWS V13.01,2013-09-03 15:32:00,
2013-09-03 11:37:00,73.0,65.4,30.20,NW,315,3.8,0.0,77,0.00,,SCT030,0.00,VWS V13.01,2013-09-03 15:37:00,
2013-09-03 11:42:00,72.6,64.7,30.20,North,0,57.0,0.0,77,0.00,,BKN038,0.00,VWS V13.01,2013-09-03 15:42:00,
2013-09-03 11:47:00,72.3,64.5,30.20,WSW,248,5.1,0.0,76,0.00,,BKN038,0.00,VWS V13.01,2013-09-03 15:47:00,
2013-09-03 11:52:00,72.3,65.2,30.20,NW,315,0.2,0.0,78,0.00,,BKN038,0.00,VWS V13.01,2013-09-03 15:52:00,
2013-09-03 11:57:00,73.0,65.0,30.20,NW,315,5.3,0.0,76,0.00,,BKN038,0.00,VWS V13.01,2013-09-03 15:57:00,
2013-09-03 12:02:00,73.0,64.6,30.20,WNW,292,0.8,0.0,75,0.00,,SCT048,0.00,VWS V13.01,2013-09-03 16:02:00,
2013-09-03 12:07:00,72.8,64.8,30.20,West,270,0.2,0.0,75,0.00,,SCT048,0.00,VWS V13.01,2013-09-03 16:07:00,
2013-09-03 12:12:00,73.2,65.1,30.20,WNW,292,3.1,0.0,76,0.00,,SCT048,0.00,VWS V13.01,2013-09-03 16:12:00,
2013-09-03 12:17:00,73.7,64.9,30.20,NNW,338,4.6,0.0,73,0.00,,SCT048,0.00,VWS V13.01,2013-09-03 16:17:00,
2013-09-03 12:22:00,74.4,65.2,30.20,NW,315,5.1,0.0,72,0.00,,SCT048,0.00,VWS V13.01,2013-09-03 16:22:00,
2013-09-03 12:27:00,75.3,64.8,30.20,West,270,7.3,0.0,71,0.00,,SCT048,0.00,VWS V13.01,2013-09-03 16:27:00,
2013-09-03 12:32:00,75.7,64.4,30.20,NW,315,1.7,0.0,68,0.00,,SCT048,0.00,VWS V13.01,2013-09-03 16:32:00,
2013-09-03 12:37:00,75.7,64.4,30.20,NW,315,4.0,0.0,69,0.00,,SCT048,0.00,VWS V13.01,2013-09-03 16:37:00,
2013-09-03 12:42:00,75.7,64.0,30.20,NW,315,4.9,0.0,68,0.00,,BKN060,0.00,VWS V13.01,2013-09-03 16:42:00,
2013-09-03 12:47:00,75.3,64.2,30.20,North,0,57.0,0.0,68,0.00,,BKN060,0.00,VWS V13.01,2013-09-03 16:47:00,
2013-09-03 12:52:00,75.0,63.1,30.20,NW,315,2.4,0.0,68,0.00,,BKN060,0.00,VWS V13.01,2013-09-03 16:52:00,
2013-09-03 12:57:00,74.8,63.1,30.20,NW,315,8.2,0.0,67,0.00,,BKN060,0.00,VWS V13.01,2013-09-03 16:57:00,
2013-09-03 13:02:00,74.6,62.7,30.20,North,0,6.0,0.0,66,0.00,,SCT060,0.00,VWS V13.01,2013-09-03 17:02:00,
2013-09-03 13:07:00,75.0,62.9,30.20,WSW,248,7.8,0.0,66,0.00,,SCT060,0.00,VWS V13.01,2013-09-03 17:07:00,
2013-09-03 13:12:00,75.3,61.6,30.20,West,270,1.1,0.0,64,0.00,,SCT060,0.00,VWS V13.01,2013-09-03 17:12:00,
2013-09-03 13:17:00,75.3,61.8,30.20,NNW,338,2.9,0.0,63,0.00,,SCT060,0.00,VWS V13.01,2013-09-03 17:17:00,
2013-09-03 13:22:00,75.3,62.0,30.20,NNW,338,2.4,0.0,64,0.00,,SCT060,0.00,VWS V13.01,2013-09-03 17:22:00,
2013-09-03 13:27:00,75.5,61.6,30.20,WSW,248,0.8,0.0,64,0.00,,SCT060,0.00,VWS V13.01,2013-09-03 17:27:00,
2013-09-03 13:32:00,75.3,62.7,30.20,NW,315,3.3,0.0,64,0.00,,SCT060,0.00,VWS V13.01,2013-09-03 17:32:00,
2013-09-03 13:37:00,75.5,62.7,30.20,WNW,292,3.1,0.0,65,0.00,,SCT060,0.00,VWS V13.01,2013-09-03 17:37:00,
2013-09-03 13:42:00,75.9,62.4,30.20,NNW,338,0.6,0.0,63,0.00,,CLR,0.00,VWS V13.01,2013-09-03 17:42:00,
2013-09-03 13:47:00,75.9,62.4,30.20,NNE,22,7.6,0.0,62,0.00,,CLR,0.00,VWS V13.01,2013-09-03 17:47:00,
2013-09-03 13:52:00,75.9,62.4,30.20,NW,315,6.2,0.0,64,0.00,,CLR,0.00,VWS V13.01,2013-09-03 17:52:00,
2013-09-03 13:57:00,75.7,62.0,30.19,NNE,22,1.5,0.0,63,0.00,,CLR,0.00,VWS V13.01,2013-09-03 17:57:00,
2013-09-03 14:02:00,75.0,62.0,30.19,NW,315,8.2,0.0,63,0.00,,CLR,0.00,VWS V13.01,2013-09-03 18:02:00,
2013-09-03 14:07:00,75.0,62.5,30.19,NNW,338,1.1,0.0,65,0.00,,CLR,0.00,VWS V13.01,2013-09-03 18:07:00,
2013-09-03 14:12:00,75.3,60.9,30.19,NW,315,4.2,0.0,64,0.00,,CLR,0.00,VWS V13.01,2013-09-03 18:12:00,
2013-09-03 14:17:00,75.3,61.8,30.19,NW,315,6.9,0.0,62,0.00,,CLR,0.00,VWS V13.01,2013-09-03 18:17:00,
2013-09-03 14:22:00,75.3,61.4,30.19,NNW,338,4.9,0.0,61,0.00,,CLR,0.00,VWS V13.01,2013-09-03 18:22:00,
2013-09-03 14:27:00,75.7,62.0,30.19,NW,315,5.8,0.0,63,0.00,,CLR,0.00,VWS V13.01,2013-09-03 18:27:00,
2013-09-03 14:32:00,75.9,61.0,30.19,WNW,292,2.6,0.0,60,0.00,,CLR,0.00,VWS V13.01,2013-09-03 18:32:00,
2013-09-03 14:37:00,75.7,60.4,30.19,NW,315,1.5,0.0,60,0.00,,CLR,0.00,VWS V13.01,2013-09-03 18:37:00,
2013-09-03 14:42:00,75.7,60.8,30.19,North,0,57.0,0.0,60,0.00,,SCT060,0.00,VWS V13.01,2013-09-03 18:42:00,
2013-09-03 14:47:00,75.7,62.2,30.18,NW,315,5.5,0.0,61,0.00,,SCT060,0.00,VWS V13.01,2013-09-03 18:47:00,
2013-09-03 14:52:00,75.7,62.7,30.18,NNW,338,4.9,0.0,61,0.00,,SCT060,0.00,VWS V13.01,2013-09-03 18:52:00,
2013-09-03 14:57:00,75.9,61.3,30.18,West,270,4.0,0.0,61,0.00,,SCT060,0.00,VWS V13.01,2013-09-03 18:57:00,
2013-09-03 15:02:00,75.9,61.3,30.19,West,270,4.2,0.0,60,0.00,,SCT060,0.00,VWS V13.01,2013-09-03 19:02:00,
2013-09-03 15:07:00,75.7,60.8,30.19,NNW,338,8.7,0.0,61,0.00,,SCT060,0.00,VWS V13.01,2013-09-03 19:07:00,
2013-09-03 15:12:00,75.5,60.7,30.18,NW,315,4.4,0.0,60,0.00,,SCT060,0.00,VWS V13.01,2013-09-03 19:12:00,
2013-09-03 15:17:00,75.5,60.5,30.18,WNW,292,5.3,0.0,60,0.00,,SCT060,0.00,VWS V13.01,2013-09-03 19:17:00,
2013-09-03 15:22:00,75.3,61.3,30.19,WNW,292,6.0,0.0,59,0.00,,SCT060,0.00,VWS V13.01,2013-09-03 19:22:00,
2013-09-03 15:27:00,75.3,60.9,30.18,WNW,292,57.0,0.0,61,0.00,,SCT060,0.00,VWS V13.01,2013-09-03 19:27:00,
2013-09-03 15:32:00,75.3,60.7,30.18,NW,315,7.6,0.0,61,0.00,,SCT060,0.00,VWS V13.01,2013-09-03 19:32:00,
2013-09-03 15:37:00,75.3,60.5,30.18,West,270,5.1,0.0,59,0.00,,SCT060,0.00,VWS V13.01,2013-09-03 19:37:00,
2013-09-03 15:42:00,75.3,60.9,30.18,West,270,6.9,0.0,60,0.00,,SCT060,0.00,VWS V13.01,2013-09-03 19:42:00,
2013-09-03 15:47:00,75.2,60.7,30.18,NW,315,8.5,0.0,60,0.00,,SCT060,0.00,VWS V13.01,2013-09-03 19:47:00,
2013-09-03 15:52:00,75.0,60.7,30.18,NW,315,1.7,0.0,60,0.00,,SCT060,0.00,VWS V13.01,2013-09-03 19:52:00,
2013-09-03 15:57:00,74.8,60.9,30.18,NNE,22,2.0,0.0,61,0.00,,SCT060,0.00,VWS V13.01,2013-09-03 19:57:00,
2013-09-03 16:02:00,75.0,60.7,30.18,WNW,292,4.9,0.0,61,0.00,,CLR,0.00,VWS V13.01,2013-09-03 20:02:00,
2013-09-03 16:07:00,74.8,60.0,30.18,WNW,292,2.2,0.0,60,0.00,,CLR,0.00,VWS V13.01,2013-09-03 20:07:00,
2013-09-03 16:12:00,74.8,60.0,30.18,North,0,57.0,0.0,61,0.00,,CLR,0.00,VWS V13.01,2013-09-03 20:12:00,
2013-09-03 16:17:00,74.8,60.2,30.18,NW,315,5.1,0.0,61,0.00,,CLR,0.00,VWS V13.01,2013-09-03 20:17:00,
2013-09-03 16:22:00,75.0,59.2,30.18,North,0,57.0,0.0,59,0.00,,CLR,0.00,VWS V13.01,2013-09-03 20:22:00,
2013-09-03 16:27:00,74.8,59.5,30.18,West,270,2.6,0.0,58,0.00,,CLR,0.00,VWS V13.01,2013-09-03 20:27:00,
2013-09-03 16:32:00,74.8,59.0,30.18,West,270,2.4,0.0,57,0.00,,CLR,0.00,VWS V13.01,2013-09-03 20:32:00,
2013-09-03 16:37:00,74.8,59.0,30.19,West,270,2.9,0.0,57,0.00,,CLR,0.00,VWS V13.01,2013-09-03 20:37:00,
2013-09-03 16:42:00,74.8,59.0,30.18,WSW,248,2.2,0.0,58,0.00,,CLR,0.00,VWS V13.01,2013-09-03 20:42:00,
2013-09-03 16:47:00,74.8,59.5,30.18,NNW,338,1.3,0.0,59,0.00,,CLR,0.00,VWS V13.01,2013-09-03 20:47:00,
2013-09-03 16:52:00,74.8,59.5,30.18,NW,315,5.5,0.0,58,0.00,,CLR,0.00,VWS V13.01,2013-09-03 20:52:00,
2013-09-03 16:57:00,74.8,60.0,30.18,NW,315,6.2,0.0,58,0.00,,CLR,0.00,VWS V13.01,2013-09-03 20:57:00,
2013-09-03 17:02:00,75.0,59.2,30.18,West,270,5.8,0.0,61,0.00,,CLR,0.00,VWS V13.01,2013-09-03 21:02:00,
2013-09-03 17:07:00,74.6,58.7,30.19,NW,315,1.3,0.0,58,0.00,,CLR,0.00,VWS V13.01,2013-09-03 21:07:00,
2013-09-03 17:12:00,74.1,58.7,30.18,WSW,248,2.4,0.0,58,0.00,,CLR,0.00,VWS V13.01,2013-09-03 21:12:00,
2013-09-03 17:17:00,74.1,58.7,30.19,NW,315,2.9,0.0,58,0.00,,CLR,0.00,VWS V13.01,2013-09-03 21:17:00,
2013-09-03 17:22:00,74.1,58.4,30.18,WSW,248,0.2,0.0,58,0.00,,CLR,0.00,VWS V13.01,2013-09-03 21:22:00,
2013-09-03 17:27:00,74.1,58.6,30.19,NW,315,1.7,0.0,58,0.00,,CLR,0.00,VWS V13.01,2013-09-03 21:27:00,
2013-09-03 17:32:00,74.1,59.1,30.19,WNW,292,5.3,0.0,58,0.00,,CLR,0.00,VWS V13.01,2013-09-03 21:32:00,
2013-09-03 17:37:00,74.1,59.1,30.20,West,270,3.5,0.0,59,0.00,,CLR,0.00,VWS V13.01,2013-09-03 21:37:00,
2013-09-03 17:42:00,74.3,58.9,30.19,NW,315,57.0,0.0,59,0.00,,SCT047,0.00,VWS V13.01,2013-09-03 21:42:00,
2013-09-03 17:47:00,74.3,58.5,30.19,NW,315,0.8,0.0,59,0.00,,SCT047,0.00,VWS V13.01,2013-09-03 21:47:00,
2013-09-03 17:53:00,73.5,58.8,30.20,NW,315,9.1,0.0,60,0.00,,SCT047,0.00,VWS V13.01,2013-09-03 21:53:00,
2013-09-03 17:58:00,73.5,58.5,30.19,WNW,292,4.6,0.0,60,0.00,,SCT047,0.00,VWS V13.01,2013-09-03 21:58:00,
2013-09-03 18:03:00,73.5,58.3,30.20,West,270,2.9,0.0,60,0.00,,SCT045,0.00,VWS V13.01,2013-09-03 22:03:00,
2013-09-03 18:09:00,72.6,58.3,30.20,NW,315,2.9,0.0,60,0.00,,SCT045,0.00,VWS V13.01,2013-09-03 22:09:00,
2013-09-03 18:14:00,72.6,58.3,30.20,NW,315,0.6,0.0,61,0.00,,SCT045,0.00,VWS V13.01,2013-09-03 22:14:00,
2013-09-03 18:19:00,72.5,58.4,30.20,WNW,292,0.8,0.0,61,0.00,,SCT045,0.00,VWS V13.01,2013-09-03 22:19:00,
2013-09-03 18:24:00,72.6,58.8,30.20,NW,315,3.5,0.0,62,0.00,,SCT045,0.00,VWS V13.01,2013-09-03 22:24:00,
2013-09-03 18:30:00,72.6,58.8,30.20,NW,315,4.0,0.0,60,0.00,,SCT045,0.00,VWS V13.01,2013-09-03 22:30:00,
2013-09-03 18:35:00,72.6,58.1,30.20,NW,315,3.3,0.0,62,0.00,,SCT045,0.00,VWS V13.01,2013-09-03 22:35:00,
2013-09-03 18:40:00,72.6,58.6,30.20,WNW,292,1.3,0.0,62,0.00,,SCT045,0.00,VWS V13.01,2013-09-03 22:40:00,
2013-09-03 18:45:00,72.1,58.8,30.20,NW,315,0.6,0.0,62,0.00,,SCT050,0.00,VWS V13.01,2013-09-03 22:45:00,
2013-09-03 18:50:00,71.9,58.8,30.20,NW,315,2.6,0.0,62,0.00,,SCT050,0.00,VWS V13.01,2013-09-03 22:50:00,
2013-09-03 18:55:00,72.6,58.0,30.21,NW,315,1.7,0.0,62,0.00,,SCT050,0.00,VWS V13.01,2013-09-03 22:55:00,
2013-09-03 19:00:00,72.6,58.2,30.21,NW,315,1.7,0.0,62,0.00,,SCT050,0.00,VWS V13.01,2013-09-03 23:00:00,
2013-09-03 19:05:00,71.0,58.2,30.21,WNW,292,0.8,0.0,64,0.00,,CLR,0.00,VWS V13.01,2013-09-03 23:05:00,
2013-09-03 19:10:00,70.5,58.2,30.21,WNW,292,0.8,0.0,65,0.00,,CLR,0.00,VWS V13.01,2013-09-03 23:10:00,
2013-09-03 19:15:00,70.1,58.2,30.21,NW,315,1.5,0.0,66,0.00,,CLR,0.00,VWS V13.01,2013-09-03 23:15:00,
2013-09-03 19:20:00,71.4,58.0,30.21,WNW,292,1.7,0.0,63,0.00,,CLR,0.00,VWS V13.01,2013-09-03 23:20:00,
2013-09-03 19:25:00,69.4,57.5,30.21,NW,315,0.8,0.0,67,0.00,,CLR,0.00,VWS V13.01,2013-09-03 23:25:00,
2013-09-03 19:30:00,69.4,57.5,30.22,NW,315,2.4,0.0,67,0.00,,CLR,0.00,VWS V13.01,2013-09-03 23:30:00,
2013-09-03 19:36:00,69.4,57.6,30.22,North,0,5.8,0.0,67,0.00,,CLR,0.00,VWS V13.01,2013-09-03 23:36:00,
2013-09-03 19:40:00,68.1,57.3,30.22,NW,315,0.6,0.0,69,0.00,,CLR,0.00,VWS V13.01,2013-09-03 23:40:00,
2013-09-03 19:46:00,67.2,57.3,30.22,NW,315,0.6,0.0,70,0.00,,CLR,0.00,VWS V13.01,2013-09-03 23:46:00,
2013-09-03 19:51:00,67.8,56.8,30.22,NW,315,0.6,0.0,69,0.00,,CLR,0.00,VWS V13.01,2013-09-03 23:51:00,
2013-09-03 19:56:00,66.7,57.0,30.22,NW,315,0.2,0.0,71,0.00,,CLR,0.00,VWS V13.01,2013-09-03 23:56:00,
2013-09-03 20:01:00,66.3,57.0,30.22,NW,315,0.2,0.0,72,0.00,,CLR,0.00,VWS V13.01,2013-09-04 00:01:00,
2013-09-03 20:06:00,66.3,56.7,30.23,NW,315,0.2,0.0,72,0.00,,CLR,0.00,VWS V13.01,2013-09-04 00:06:00,
2013-09-03 20:11:00,66.3,56.9,30.23,NW,315,0.2,0.0,72,0.00,,CLR,0.00,VWS V13.01,2013-09-04 00:11:00,
2013-09-03 20:16:00,66.3,57.1,30.23,NW,315,0.2,0.0,72,0.00,,CLR,0.00,VWS V13.01,2013-09-04 00:16:00,
2013-09-03 20:21:00,66.3,56.9,30.24,NW,315,0.2,0.0,72,0.00,,CLR,0.00,VWS V13.01,2013-09-04 00:21:00,
2013-09-03 20:26:00,65.1,56.6,30.24,NW,315,0.2,0.0,74,0.00,,CLR,0.00,VWS V13.01,2013-09-04 00:26:00,
2013-09-03 20:31:00,64.9,56.8,30.24,NW,315,0.2,0.0,75,0.00,,CLR,0.00,VWS V13.01,2013-09-04 00:31:00,
2013-09-03 20:36:00,64.7,56.4,30.24,NW,315,0.2,0.0,75,0.00,,CLR,0.00,VWS V13.01,2013-09-04 00:36:00,
2013-09-03 20:41:00,64.7,56.5,30.24,NW,315,0.2,0.0,75,0.00,,CLR,0.00,VWS V13.01,2013-09-04 00:41:00,
2013-09-03 20:46:00,64.7,56.5,30.24,NNW,338,0.2,0.0,75,0.00,,CLR,0.00,VWS V13.01,2013-09-04 00:46:00,
2013-09-03 20:51:00,64.7,56.7,30.24,NNW,338,0.2,0.0,75,0.00,,CLR,0.00,VWS V13.01,2013-09-04 00:51:00,
2013-09-03 20:56:00,64.0,56.3,30.25,NNW,338,0.2,0.0,77,0.00,,CLR,0.00,VWS V13.01,2013-09-04 00:56:00,
2013-09-03 21:01:00,63.5,56.3,30.25,NNW,338,0.2,0.0,77,0.00,,CLR,0.00,VWS V13.01,2013-09-04 01:01:00,
2013-09-03 21:06:00,63.5,56.5,30.26,NNW,338,0.2,0.0,78,0.00,,CLR,0.00,VWS V13.01,2013-09-04 01:06:00,
2013-09-03 21:11:00,63.5,56.3,30.26,NNW,338,0.2,0.0,78,0.00,,CLR,0.00,VWS V13.01,2013-09-04 01:11:00,
2013-09-03 21:16:00,63.1,56.5,30.26,NNW,338,0.2,0.0,78,0.00,,CLR,0.00,VWS V13.01,2013-09-04 01:16:00,
2013-09-03 21:21:00,62.9,55.9,30.26,NNW,338,0.2,0.0,78,0.00,,CLR,0.00,VWS V13.01,2013-09-04 01:21:00,
2013-09-03 21:26:00,62.7,55.9,30.27,NNW,338,0.2,0.0,78,0.00,,CLR,0.00,VWS V13.01,2013-09-04 01:26:00,
2013-09-03 21:31:00,62.4,55.8,30.27,NNW,338,0.2,0.0,79,0.00,,CLR,0.00,VWS V13.01,2013-09-04 01:31:00,
2013-09-03 21:36:00,62.4,55.8,30.27,NNW,338,57.0,0.0,79,0.00,,CLR,0.00,VWS V13.01,2013-09-04 01:36:00,
2013-09-03 21:41:00,62.4,55.8,30.27,NNW,338,57.0,0.0,79,0.00,,CLR,0.00,VWS V13.01,2013-09-04 01:41:00,
2013-09-03 21:46:00,62.2,55.6,30.27,NNW,338,57.0,0.0,79,0.00,,CLR,0.00,VWS V13.01,2013-09-04 01:46:00,
2013-09-03 21:51:00,62.0,56.0,30.27,NNW,338,57.0,0.0,80,0.00,,CLR,0.00,VWS V13.01,2013-09-04 01:51:00,
2013-09-03 21:56:00,61.8,55.6,30.27,NNW,338,57.0,0.0,80,0.00,,CLR,0.00,VWS V13.01,2013-09-04 01:56:00,
2013-09-03 22:02:00,61.7,55.5,30.27,NNW,338,57.0,0.0,80,0.00,,CLR,0.00,VWS V13.01,2013-09-04 02:02:00,
2013-09-03 22:07:00,61.7,55.3,30.27,NNW,338,57.0,0.0,80,0.00,,CLR,0.00,VWS V13.01,2013-09-04 02:07:00,
2013-09-03 22:12:00,61.5,55.6,30.27,NNW,338,57.0,0.0,81,0.00,,CLR,0.00,VWS V13.01,2013-09-04 02:12:00,
2013-09-03 22:17:00,61.5,55.4,30.27,NNW,338,57.0,0.0,81,0.00,,CLR,0.00,VWS V13.01,2013-09-04 02:17:00,
2013-09-03 22:22:00,61.3,55.2,30.28,NNW,338,57.0,0.0,81,0.00,,CLR,0.00,VWS V13.01,2013-09-04 02:22:00,
2013-09-03 22:27:00,60.9,55.0,30.28,NNW,338,57.0,0.0,81,0.00,,CLR,0.00,VWS V13.01,2013-09-04 02:27:00,
2013-09-03 22:32:00,60.8,54.8,30.28,NNW,338,57.0,0.0,81,0.00,,CLR,0.00,VWS V13.01,2013-09-04 02:32:00,
2013-09-03 22:37:00,60.6,54.8,30.28,NNW,338,57.0,0.0,81,0.00,,CLR,0.00,VWS V13.01,2013-09-04 02:37:00,
2013-09-03 22:42:00,60.4,54.9,30.28,NNW,338,57.0,0.0,81,0.00,,CLR,0.00,VWS V13.01,2013-09-04 02:42:00,
2013-09-03 22:47:00,60.4,54.5,30.28,NNW,338,57.0,0.0,82,0.00,,CLR,0.00,VWS V13.01,2013-09-04 02:47:00,
2013-09-03 22:52:00,60.0,54.4,30.28,NNW,338,57.0,0.0,82,0.00,,CLR,0.00,VWS V13.01,2013-09-04 02:52:00,
2013-09-03 22:57:00,59.7,54.2,30.28,NNW,338,57.0,0.0,82,0.00,,CLR,0.00,VWS V13.01,2013-09-04 02:57:00,
2013-09-03 23:02:00,59.7,54.3,30.28,NNW,338,57.0,0.0,82,0.00,,CLR,0.00,VWS V13.01,2013-09-04 03:02:00,
2013-09-03 23:07:00,59.5,54.0,30.28,NNW,338,57.0,0.0,83,0.00,,CLR,0.00,VWS V13.01,2013-09-04 03:07:00,
2013-09-03 23:12:00,59.3,54.2,30.28,NNW,338,57.0,0.0,83,0.00,,CLR,0.00,VWS V13.01,2013-09-04 03:12:00,
2013-09-03 23:17:00,59.1,54.0,30.28,NNW,338,57.0,0.0,83,0.00,,CLR,0.00,VWS V13.01,2013-09-04 03:17:00,
2013-09-03 23:22:00,59.1,53.8,30.28,NNW,338,57.0,0.0,83,0.00,,CLR,0.00,VWS V13.01,2013-09-04 03:22:00,
2013-09-03 23:27:00,58.8,53.7,30.28,NNW,338,57.0,0.0,83,0.00,,CLR,0.00,VWS V13.01,2013-09-04 03:27:00,
2013-09-03 23:32:00,58.8,54.0,30.28,NNW,338,57.0,0.0,84,0.00,,CLR,0.00,VWS V13.01,2013-09-04 03:32:00,
2013-09-03 23:37:00,58.8,54.0,30.28,NNW,338,57.0,0.0,84,0.00,,CLR,0.00,VWS V13.01,2013-09-04 03:37:00,
2013-09-03 23:42:00,58.8,53.8,30.28,NNW,338,57.0,0.0,84,0.00,,CLR,0.00,VWS V13.01,2013-09-04 03:42:00,
2013-09-03 23:47:00,58.6,54.1,30.28,NNW,338,57.0,0.0,85,0.00,,CLR,0.00,VWS V13.01,2013-09-04 03:47:00,
2013-09-03 23:52:00,58.4,54.1,30.28,NNW,338,57.0,0.0,85,0.00,,CLR,0.00,VWS V13.01,2013-09-04 03:52:00,
2013-09-03 23:57:00,58.2,53.7,30.28,NNW,338,57.0,0.0,85,0.00,,CLR,0.00,VWS V13.01,2013-09-04 03:57:00,